Location: Cahoon Acres
(40.8736°N, 111.8994°W)
Time: 12:14:51
(UTC+00:00)

SR - Pass Details

Date: 06 June 2020
Orbit: 583 x 872 km, 66.7° (Epoch: 14 July)

Event Time Altitude Azimuth Distance (km) Brightness Sun altitude
Rises 21:52:23 0° 241° (WSW) 3,259 ? 54.5°
Reaches altitude 10° 21:55:15 10° 253° (WSW) 2,283 ? 54.0°
Maximum altitude 21:59:33 26° 309° (NW) 1,407 ? 53.2°
Drops below altitude 10° 22:03:36 10° 6° (N) 2,132 ? 52.5°
Sets 22:06:12 0° 20° (NNE) 2,999 ? 52.0°
